Theta_e
290 290 290 290 290 291 292 292 293 293 293 294 294 294 292 290 289 289 291 289 288 290
288 288 288 288 289 289 289 291 291 291 290 291 292 292 291 289 288 289 288 291 290 289
286 287 286 286 285 285 286 288 288 288 288 289 290 290 289 288 288 287 288 289 288 289
286 286 286 285 284 283 284 284 285 286 286 287 287 287 287 287 287 286 287 287 287 288
284 284 284 284 284 282 283 283 283 284 284 285 285 285 285 285 287 286 286 286 286 287
281 281 281 282 283 282 282 281 282 282 282 283 283 283 284 284 285 286 286 286 286 286
280 280 280 281 281 281 280 279 280 280 282 282 283 283 283 284 283 284 286 286 286 286
279 280 279 279 280 280 279 278 279 279 280 281 282 282 282 282 283 283 284 285 285 286
279 280 280 279 279 279 279 278 278 278 278 279 280 285 286 286 283 284 284 283 284 285
279 278 279 279 279 278 277 277 277 277 277 277 278 283 285 285 282 282 283 283 284 284
278 277 278 278 277 277 277 276 276 276 276 276 276 281 282 283 280 281 282 283 283 283
276 275 276 275 275 276 275 275 274 275 274 274 274 279 279 279 277 278 279 281 283 283
273 272 271 272 272 272 272 273 273 273 273 273 272 276 277 277 275 274 277 279 281 284
269 267 267 267 267 267 267 268 267 268 269 269 270 270 274 275 273 274 275 276 279 281
Wind_Speed
7 5 4 6 6 7 7 7 7 7 6 7 7 6 6 4 5 7 9 11 7 8
6 6 6 7 6 6 7 8 10 9 9 7 6 7 7 5 7 7 7 10 10 9
6 6 6 6 7 7 6 8 8 7 7 9 8 7 7 6 6 7 7 7 9 10
5 7 8 8 7 6 5 6 6 7 7 7 7 7 7 7 7 9 9 8 9 11
5 3 3 2 4 7 8 8 7 5 6 7 8 8 7 7 8 8 10 9 11 12
3 3 4 4 4 4 5 6 8 9 9 8 6 7 8 8 10 10 11 10 11 12
5 5 5 6 6 6 6 6 6 7 9 10 10 8 8 8 9 11 13 12 12 13
7 7 6 7 7 6 6 7 7 9 9 9 8 7 8 8 9 11 13 13 13 14
7 8 10 10 9 9 9 8 8 12 12 12 9 18 21 17 11 13 13 14 14 14
9 10 11 11 11 11 12 10 13 13 12 14 15 25 26 25 14 14 14 15 13 14
10 11 14 15 16 16 13 15 15 16 16 16 16 30 30 29 18 17 18 17 17 16
9 10 13 15 17 17 17 17 18 18 19 19 20 30 32 29 18 18 21 18 18 18
10 12 15 16 16 16 16 19 17 21 20 23 23 31 36 31 15 19 17 19 20 26
12 12 14 17 16 17 18 19 20 22 21 23 22 24 37 36 20 17 17 17 16 15
Wind_Direction
20 23 10 15 21 12 357 344 346 326 278 247 245 255 248 231 227 220 227 233 229 218
11 35 22 25 22 19 2 350 349 338 330 308 271 249 249 241 235 232 227 232 233 230
4 20 22 21 17 19 351 349 342 333 328 326 312 284 259 256 253 238 234 232 234 235
9 7 13 9 359 0 348 337 327 321 328 324 312 307 289 267 256 253 249 240 230 235
34 348 352 325 326 330 332 314 323 318 318 317 314 306 299 282 271 261 254 247 244 241
349 339 293 275 264 269 289 318 322 325 323 314 293 293 286 284 287 279 267 257 252 251
316 306 300 299 300 301 307 301 293 291 294 299 300 290 282 276 274 274 272 266 259 256
316 312 306 297 297 296 291 289 280 288 283 271 273 277 283 274 269 269 271 266 261 258
313 313 313 311 306 301 294 285 286 288 283 282 279 275 278 285 276 269 268 267 264 260
305 303 302 298 296 292 296 293 293 288 284 282 282 284 282 284 281 273 264 261 263 265
291 294 298 299 295 293 295 293 290 288 287 286 285 285 284 285 281 274 266 258 254 253
294 295 297 294 293 293 296 293 291 286 284 283 282 284 287 289 285 277 272 264 256 247
313 309 304 303 301 299 294 289 289 286 283 282 283 284 285 287 283 277 271 268 260 249
308 306 299 296 294 293 291 287 284 282 281 280 279 282 284 284 276 268 268 263 258 253